EW8926 Weather Reports


time (UTC)temp
C
wind
direction
speed
KPH
gust
KPH
rain 1hr
cm
rain 24hr
cm
rain mn
cm
humidity
%
barometer
mb
20260506070107 12 44 3.2 3.2 0.53 1.09 1.07 98 1008.8
20260506061604 12 311 3.2 4.8 0.15 0.64 0.61 98 1009.2
20260506061104 12 308 1.6 8.0 0.13 0.61 0.58 98 1009.4
20260506060604 12 301 1.6 8.0 0.10 0.58 0.56 98 1009.6
20260506060104 12 329 1.6 3.2 0.08 0.56 0.53 98 1009.6
20260506050604 12 334 1.6 4.8 0.00 0.66 0.46 98 1009.3
20260506050107 12 343 1.6 4.8 0.00 0.69 0.46 98 1009.3
20260506045104 12 344 0.0 3.2 0.00 0.76 0.46 98 1009.7
20260506044604 12 64 0.0 3.2 0.00 0.81 0.46 98 1009.7
20260506044105 12 99 0.0 3.2 0.00 0.86 0.46 98 1009.9
20260506043604 12 99 0.0 3.2 0.00 0.91 0.46 98 1010.0
20260506043104 12 99 0.0 3.2 0.00 0.97 0.46 98 1010.0
20260506042605 12 99 0.0 3.2 0.00 1.02 0.46 98 1009.9
20260506042104 11 54 0.0 3.2 0.00 1.09 0.46 98 1009.9
20260506041604 11 315 0.0 1.6 0.00 1.14 0.46 98 1009.9
20260506041104 11 315 1.6 0.0 0.00 1.19 0.46 98 1010.0
20260506040603 11 315 1.6 3.2 0.00 1.24 0.46 98 1010.0
20260506035604 12 315 0.0 3.2 0.03 1.27 0.46 98 1010.0
20260506035103 12 315 3.2 3.2 0.03 1.32 0.46 98 1010.0
20260506034604 12 315 3.2 3.2 0.03 1.37 0.46 98 1010.0
20260506033606 12 313 3.2 4.8 0.05 1.42 0.46 98 1010.2
20260506033104 12 339 1.6 8.0 0.08 1.45 0.46 98 1010.2
20260506032103 12 339 1.6 3.2 0.18 1.50 0.46 98 1010.1
20260506031604 12 339 1.6 3.2 0.20 1.50 0.46 98 1010.1
20260506031107 12 340 1.6 4.8 0.25 1.55 0.46 98 1010.3
20260506030604 11 61 1.6 4.8 0.33 1.55 0.46 98 1010.5
20260506030104 11 61 3.2 4.8 0.36 1.55 0.46 98 1010.5
20260506025104 11 126 4.8 3.2 0.38 1.55 0.43 98 1010.7
20260506024605 11 126 4.8 8.0 0.38 1.57 0.43 98 1010.7
20260506024104 11 128 4.8 8.0 0.36 1.55 0.41 98 1011.1
20260506023604 11 128 3.2 8.0 0.36 1.55 0.41 98 1011.4
20260506023104 11 120 3.2 8.0 0.33 1.50 0.38 98 1011.4
20260506022604 11 128 3.2 8.0 0.28 1.47 0.33 98 1011.6
20260506021604 12 125 3.2 4.8 0.20 1.45 0.25 98 1011.7
20260506021104 12 136 1.6 9.7 0.20 1.45 0.20 98 1011.8
20260506020606 12 139 0.0 9.7 0.13 1.37 0.13 98 1011.9
20260506020104 12 107 0.0 0.0 0.10 1.37 0.10 98 1011.9
20260506015604 12 126 0.0 0.0 0.05 1.32 0.05 98 1011.8
20260506015104 12 126 0.0 0.0 0.05 1.35 0.05 98 1011.8
20260506014603 11 126 0.0 0.0 0.05 1.35 0.05 98 1011.8
20260506014104 11 126 0.0 0.0 0.05 1.35 0.05 98 1011.8
20260506013103 11 126 0.0 0.0 0.05 1.40 0.05 97 1011.8
20260506012604 11 126 0.0 0.0 0.05 1.40 0.05 98 1011.9
20260506011605 11 126 0.0 0.0 0.05 1.42 0.05 98 1012.0
20260506010104 11 126 0.0 0.0 0.00 1.42 0.00 98 1012.2
20260506005604 11 126 0.0 0.0 0.00 1.42 0.00 98 1012.1
20260506005104 11 126 0.0 0.0 0.00 1.42 0.00 98 1012.1
20260506004604 11 126 0.0 0.0 0.00 1.45 0.00 98 1012.1
20260506004104 11 126 0.0 0.0 0.00 1.45 0.00 98 1012.2
20260506003604 11 126 0.0 0.0 0.00 1.45 0.00 98 1012.2
20260506003104 11 126 0.0 0.0 0.00 1.45 0.00 98 1012.2
20260506002104 11 126 0.0 0.0 0.00 1.45 0.00 97 1012.4
20260506001604 11 126 0.0 0.0 0.00 1.45 0.00 97 1012.4
20260506001104 11 126 0.0 0.0 0.00 1.45 0.00 97 1012.6
20260506000606 11 126 0.0 0.0 0.00 1.45 0.00 97 1012.7
20260506000106 11 126 0.0 0.0 0.00 1.45 0.00 97 1012.7
20260505235104 11 126 0.0 0.0 0.00 1.45 0.00 97 1012.7
20260505234605 11 126 0.0 0.0 0.00 1.45 0.00 96 1012.7
20260505234104 11 126 0.0 0.0 0.00 1.45 0.00 96 1012.7
20260505233604 11 126 0.0 0.0 0.00 1.45 0.00 96 1012.7
20260505233105 11 126 0.0 0.0 0.00 1.45 0.00 96 1012.7
20260505232604 11 125 0.0 0.0 0.00 1.45 0.00 96 1012.8
20260505232104 11 125 0.0 0.0 0.00 1.45 0.00 96 1012.8
20260505231604 11 125 0.0 0.0 0.00 1.45 0.00 96 1012.8
20260505231105 11 125 0.0 0.0 0.00 1.45 0.00 96 1012.9
20260505230605 11 125 0.0 0.0 0.00 1.45 0.00 96 1012.9
20260505225603 12 125 0.0 0.0 0.00 1.45 0.00 96 1013.0
20260505225104 12 125 0.0 0.0 0.00 1.45 0.00 96 1013.1
20260505224104 12 125 0.0 0.0 0.00 1.45 0.00 96 1013.2
20260505223604 12 125 0.0 0.0 0.00 1.45 0.00 95 1013.2
20260505222604 12 125 0.0 0.0 0.00 1.45 0.00 95 1013.2
20260505222104 12 125 0.0 0.0 0.00 1.45 0.00 95 1013.2
20260505221103 12 125 0.0 0.0 0.00 1.45 0.00 95 1013.3
20260505220105 12 125 0.0 0.0 0.00 1.45 0.00 96 1013.4
20260505215107 12 125 0.0 0.0 0.00 1.45 1.45 95 1013.5
20260505214604 12 125 0.0 0.0 0.00 1.45 1.45 95 1013.5
20260505213604 12 125 0.0 0.0 0.00 1.45 1.45 95 1013.6
20260505213104 12 125 0.0 0.0 0.00 1.45 1.45 95 1013.6
20260505212104 12 125 0.0 0.0 0.00 1.45 1.45 95 1013.6
20260505211604 12 125 0.0 0.0 0.00 1.45 1.45 95 1013.6
20260505205103 12 125 0.0 0.0 0.00 1.45 1.45 94 1013.8
20260505204604 12 125 0.0 0.0 0.00 1.45 1.45 94 1013.8
20260505203604 13 125 0.0 0.0 0.00 1.45 1.45 93 1013.8
20260505203104 13 125 0.0 0.0 0.00 1.45 1.45 93 1013.8
20260505202604 13 125 0.0 0.0 0.00 1.45 1.45 92 1013.7
20260505202104 13 125 0.0 0.0 0.00 1.45 1.45 92 1013.7
20260505201105 13 125 0.0 0.0 0.00 1.45 1.45 92 1013.8
20260505200104 13 125 0.0 0.0 0.00 1.45 1.45 92 1013.9
20260505195111 13 125 0.0 0.0 0.00 1.45 1.45 91 1013.7
20260505194604 13 125 0.0 0.0 0.00 1.45 1.45 91 1013.7
20260505193619 13 125 0.0 0.0 0.00 1.45 1.45 91 1013.7
20260505191604 13 125 0.0 0.0 0.00 1.45 1.45 91 1013.6
20260505191107 13 125 0.0 0.0 0.00 1.45 1.45 90 1013.6
20260505190603 13 125 0.0 0.0 0.03 1.45 1.45 89 1013.6
20260505190104 14 125 0.0 0.0 0.03 1.45 1.45 90 1013.6
20260505185607 14 125 0.0 0.0 0.03 1.45 1.45 90 1013.6
20260505185104 14 125 0.0 0.0 0.03 1.45 1.45 90 1013.6
20260505184604 14 125 0.0 0.0 0.03 1.45 1.45 90 1013.6
20260505183604 14 125 0.0 0.0 0.03 1.45 1.45 90 1013.5
20260505183104 14 125 0.0 0.0 0.03 1.45 1.45 89 1013.5
20260505181605 14 125 0.0 0.0 0.03 1.45 1.45 89 1013.4
20260505181108 14 125 0.0 0.0 0.03 1.45 1.45 88 1013.4
20260505180604 14 125 0.0 0.0 0.00 1.42 1.42 88 1013.4
20260505180104 14 125 0.0 0.0 0.00 1.42 1.42 87 1013.4
20260505175607 14 125 0.0 0.0 0.00 1.42 1.42 87 1013.3
20260505175110 14 125 0.0 0.0 0.00 1.42 1.42 87 1013.3
20260505174604 14 125 0.0 0.0 0.00 1.42 1.42 87 1013.3
20260505174104 14 125 0.0 0.0 0.00 1.42 1.42 86 1013.3
20260505173604 14 125 0.0 0.0 0.00 1.42 1.42 86 1013.3
20260505173104 14 125 3.2 0.0 0.00 1.42 1.42 86 1013.3
20260505172603 14 125 3.2 3.2 0.00 1.42 1.42 86 1013.4
20260505171604 15 125 3.2 3.2 0.00 1.42 1.42 86 1013.4
20260505171105 15 123 3.2 4.8 0.00 1.42 1.42 86 1013.4
20260505170604 15 123 3.2 8.0 0.00 1.42 1.42 86 1013.4
20260505170104 15 125 3.2 4.8 0.00 1.42 1.42 85 1013.4
20260505165611 15 125 3.2 4.8 0.00 1.42 1.42 85 1013.5
20260505165103 15 124 3.2 4.8 0.00 1.42 1.42 85 1013.5
20260505164604 15 124 3.2 4.8 0.00 1.42 1.42 84 1013.5
20260505164104 15 124 3.2 3.2 0.00 1.42 1.42 84 1013.5
20260505163604 15 124 3.2 8.0 0.00 1.42 1.42 85 1013.5
20260505162604 15 132 3.2 3.2 0.00 1.42 1.42 84 1013.5
20260505162105 15 132 3.2 3.2 0.00 1.42 1.42 83 1013.5
20260505161604 15 132 3.2 4.8 0.00 1.42 1.42 83 1013.5
20260505161106 15 137 3.2 4.8 0.00 1.42 1.42 83 1013.5
20260505160606 15 126 3.2 4.8 0.00 1.42 1.42 83 1013.5
20260505160104 15 126 3.2 4.8 0.00 1.42 1.42 82 1013.5
20260505152609 15 130 3.2 4.8 0.00 1.42 1.42 82 1013.8
20260505151604 15 134 3.2 4.8 0.00 1.42 1.42 82 1013.8
20260505151104 15 130 3.2 4.8 0.00 1.42 1.42 82 1013.8
20260505150604 15 128 3.2 8.0 0.00 1.42 1.42 81 1013.8
20260505140607 16 19 3.2 3.2 0.00 1.42 1.42 81 1014.0
20260505140105 16 313 1.6 8.0 0.00 1.42 1.42 81 1014.0
20260505130105 15 101 3.2 8.0 0.00 1.42 1.42 85 1014.4
20260505124604 15 133 1.6 9.7 0.00 1.42 1.42 84 1014.5
20260505124104 15 30 3.2 4.8 0.00 1.42 1.42 85 1014.5
20260505123604 14 138 3.2 4.8 0.00 1.42 1.42 87 1014.5
20260505123104 14 141 3.2 9.7 0.00 1.42 1.42 88 1014.5
20260505122604 13 116 3.2 8.0 0.00 1.42 1.42 90 1014.6
20260505121604 13 118 3.2 8.0 0.00 1.42 1.42 89 1014.7
20260505121104 13 126 3.2 4.8 0.00 1.42 1.42 90 1014.6
20260505120605 13 135 3.2 4.8 0.00 1.42 1.42 89 1014.6
20260505115104 13 138 1.6 4.8 0.00 1.42 1.42 90 1014.7
20260505114605 13 246 1.6 3.2 0.00 1.42 1.42 91 1014.7
20260505114106 13 246 1.6 4.8 0.00 1.42 1.42 92 1014.7
20260505113104 13 294 1.6 3.2 0.00 1.42 1.42 93 1014.7
20260505112119 13 294 1.6 3.2 0.00 1.42 1.42 94 1014.8
20260505111604 12 294 1.6 3.2 0.00 1.42 1.42 95 1014.8
20260505111104 12 345 3.2 3.2 0.00 1.42 1.42 95 1014.9
20260505110606 12 355 3.2 3.2 0.00 1.42 1.42 95 1014.9
20260505110106 12 111 1.6 4.8 0.00 1.42 1.42 95 1014.9
20260505101607 12 317 3.2 8.0 0.00 1.42 1.42 96 1015.0
20260505101104 12 143 3.2 8.0 0.00 1.42 1.42 96 1014.9
20260505100611 12 268 3.2 4.8 0.00 1.42 1.42 96 1014.9
20260505100104 12 323 1.6 8.0 0.00 1.42 1.42 96 1014.9
20260505095106 12 280 1.6 4.8 0.00 1.42 1.42 96 1014.8
20260505094604 12 337 1.6 4.8 0.00 1.42 1.42 96 1014.8
20260505094105 12 335 1.6 3.2 0.00 1.42 1.42 96 1014.9
20260505093104 11 213 3.2 4.8 0.00 1.42 1.42 96 1014.9
20260505092605 11 224 3.2 4.8 0.00 1.42 1.42 96 1014.8
20260505092104 11 283 1.6 4.8 0.00 1.42 1.42 96 1014.8
20260505091604 11 264 1.6 8.0 0.00 1.42 1.42 96 1014.8
20260505090604 11 335 3.2 4.8 0.00 1.42 1.42 96 1014.8
20260505090105 11 284 1.6 4.8 0.00 1.42 1.42 96 1014.8
20260505085605 11 246 1.6 3.2 0.00 1.42 1.42 97 1014.8
20260505085105 11 300 1.6 3.2 0.00 1.42 1.42 97 1014.8
20260505084604 11 301 1.6 8.0 0.00 1.42 1.42 96 1014.8
20260505084104 11 290 1.6 3.2 0.00 1.42 1.42 97 1014.9
20260505083105 11 288 1.6 4.8 0.00 1.42 1.42 97 1015.0
20260505082605 11 198 1.6 8.0 0.00 1.42 1.42 97 1014.8
20260505082104 11 342 1.6 3.2 0.00 1.42 1.42 97 1014.7
20260505081603 11 342 0.0 3.2 0.00 1.42 1.42 97 1014.7
20260505081104 11 342 0.0 3.2 0.00 1.42 1.42 97 1014.7
20260505080605 11 342 0.0 0.0 0.00 1.42 1.42 97 1014.7
20260505080105 11 342 1.6 0.0 0.00 1.42 1.42 97 1014.7
20260505075604 11 342 1.6 3.2 0.00 1.42 1.42 97 1014.6
20260505075104 11 342 1.6 3.2 0.00 1.42 1.42 97 1014.6
20260505074607 11 342 1.6 3.2 0.00 1.42 1.42 97 1014.6
20260505074103 11 342 3.2 3.2 0.00 1.42 1.42 97 1014.6
20260505073604 11 342 3.2 3.2 0.00 1.42 1.42 97 1014.6
20260505073105 11 342 3.2 3.2 0.00 1.42 1.42 97 1014.6
20260505072605 11 343 3.2 3.2 0.00 1.42 1.42 97 1014.6
20260505072105 11 343 1.6 4.8 0.00 1.42 1.42 97 1014.6
20260505071614 11 314 1.6 4.8 0.00 1.42 1.42 97 1014.6
20260505071104 11 315 3.2 0.0 0.00 1.42 1.42 97 1014.7